Regional Weather Roundup
Issued by NWS

Home | Current Version | Previous Version | Text Only | Print | Product List | Glossary Off
Versions: 1 2 3 4 5 6 7 8 9 10 11 12 13 14 15 16 17 18 19 20 21 22 23 24 25 26 27 28 29 30 31 32 33 34 35 36 37 38 39 40 41 42 43 44 45 46 47 48 49 50

000
ASUS43 KLOT 041612
RWRIL

ILLINOIS REGIONAL WEATHER ROUNDUP
NATIONAL WEATHER SERVICE CHICAGO/ROMEOVILLE IL
1000 AM CST SUN DEC 04 2016

NOTE: "FAIR" INDICATES FEW OR NO CLOUDS BELOW 12,000 FEET WITH NO
SIGNIFICANT WEATHER AND/OR OBSTRUCTIONS TO VISIBILITY.

* THESE STATIONS ARE NOT UNDER NWS QUALITY CONTROL. THEY ALSO MAY NOT
  REPORT WEATHER SUCH AS PRECIPITATION OR FOG.

ILZ001-002-007-009-015-016-024-041700-
NORTHWEST ILLINOIS

CITY           SKY/WX    TMP DP  RH WIND       PRES   REMARKS
MOLINE         SNOW      32  30  92 E5        30.06S VSB 1/2 WCI  27
STERLING*      SNOW      31  30  96 E9        30.07S VSB 1/4 WCI  23
SAVANNA*       SNOW      31  30  96 SE6       30.07S VSB 1/2 WCI  25
$$

ILZ003-004-008-010-011-017-018-041700-
NORTH CENTRAL ILLINOIS

CITY           SKY/WX    TMP DP  RH WIND       PRES   REMARKS
ROCKFORD       SNOW      31  29  92 SE8       30.09F VSB 1/4 WCI  23
FREEPORT*      LGT SNOW  30  29  96 SE8       30.08F VSB 3/4 WCI  23
ROCHELLE*      SNOW      30  29  96 SE9       30.08F VSB 1/2 WCI  22
DE KALB*       LGT SNOW  30  29  96 E7        30.07F VSB 3/4 WCI  24
$$

ILZ005-006-012>014-019>023-041700-
NORTHEAST ILLINOIS

CITY           SKY/WX    TMP DP  RH WIND       PRES   REMARKS
CHICAGO-OHARE  LGT SNOW  32  28  85 SE6       30.10F WCI  26
CHICAGO-MIDWAY FLURRIES  34  25  69 SE7       30.10F WCI  28
AURORA         SNOW      32  29  88 E10       30.08F VSB 1/2 WCI  24
LANSING*       CLOUDY    33  30  88 E7        30.10F WCI  27
JOLIET*        LGT SNOW  34  30  85 E7        30.09F WCI  28
WAUKEGAN       CLOUDY    34  27  75 SE3       30.10F
DUPAGE AIRPORT SNOW      31  27  85 E6        30.08F VSB 1/2 WCI  25
KANKAKEE*      LGT RAIN  33  29  84 E9        30.09F WCI  26
WHEELING       LGT SNOW  31  29  92 CALM      30.11F VSB 3/4
MORRIS*        LGT SNOW  32  30  90 E7        30.06F WCI  26
ROMEOVILLE*    LGT SNOW  32  30  92 E6        30.09F WCI  27
NORTHERLY ISL    N/A     36  28  73 E6          N/A  WCI  31
$$

LMZ740>746-041700-
SOUTHERN LAKE MICHIGAN

STATION/POSITION SKY/WX   TEMP    WIND        PRES    VSBY  WAVE
                          AIR SEA DIR/SP/G                  HT/PER
                          (F)     (DEG/KT/KT) (MB)    (MI)  (FT/S)
SOUTHERN BUOY              38 48  140/ 14/ 17 1020.2F         0
HARRISON CRIB              37     120/ 11/ 13   N/A
BURNHAM HARBOR             36     120/  6/  9   N/A
CALUMET HARBOR             35     160/  7/  8 1018.9F
BURNS HARBOR               34     110/  9/ 12 1020.0F
$$

ILZ025>027-034>036-040-047-049-050-058-095>099-041700-
WEST-CENTRAL ILLINOIS

CITY           SKY/WX    TMP DP  RH WIND       PRES   REMARKS
QUINCY         SNOW      33  32  96 E6        30.02S VSB 1/2 WCI  28
GALESBURG*     SNOW      32  32 100 E3        30.05S VSB 1/2
MACOMB*        SNOW      32  32 100 E5        30.06F VSB 1/2 WCI  27
JACKSONVILLE*  LGT SNOW  32  32  99 E5        30.03F VSB 1   WCI  27
PITTSFIELD*    SNOW      33  33  99 CALM      30.03F VSB 1/2
$$

ILZ028>032-037-038-041>044-048-051>054-059>061-041700-
CENTRAL ILLINOIS

CITY           SKY/WX    TMP DP  RH WIND       PRES   REMARKS
PONTIAC        MIX PCPN  33  33  98 E12       30.06F WCI  25
BLOOMINGTON    LGT SNOW  32  30  93 E8        30.05S FOG     WCI  25
DECATUR        RAIN     N/A N/A N/A E9        30.03F
PEORIA         SNOW      32  32 100 E5        30.06S VSB 1/2 WCI  27
LACON*         LGT SNOW  31  31  98 E5        30.06F VSB 1   WCI  27
LINCOLN*       HVY RAIN  34  33  99 E5        30.05S WCI  30
SPRINGFIELD    RAIN      34  32  92 NE5       30.04F FOG     WCI  30
TAYLORVILLE    LGT RAIN  35  34  96 E6        30.02S WCI  30
$$

ILZ033-039-045-046-055>057-062-063-041700-
EAST-CENTRAL ILLINOIS

CITY           SKY/WX    TMP DP  RH WIND       PRES   REMARKS
CHAMPAIGN      LGT RAIN  35  30  82 E10       30.03F WCI  27
RANTOUL*       CLOUDY    36  33  88 E8        30.05F FOG     WCI  30
MATTOON        CLOUDY    36  32  85 E10       30.01F WCI  28
PARIS*         CLOUDY    37  33  85 E8        30.05F WCI  31
$$

ILZ079-100>102-041700-
SOUTHWEST ILLINOIS

CITY           SKY/WX    TMP DP  RH WIND       PRES   REMARKS
ALTON          LGT RAIN  36  36 100 E6        30.03R WCI  31
BELLEVILLE     LGT RAIN  37  37 100 SE3       30.01F FOG
CAHOKIA*       LGT RAIN  39  36  89 SE5       30.02S FOG
SPARTA*        DRIZZLE   37  37  97 SE3       30.03S
$$

ILZ064>066-069>071-074>076-080>082-084>086-088>090-092>094-041700-
SOUTH-CENTRAL ILLINOIS

CITY           SKY/WX    TMP DP  RH WIND       PRES   REMARKS
CARBONDALE     LGT RAIN  39  39 100 S5        30.02F FOG
CAIRO*         DRIZZLE   41  41 100 SE5       30.02F
EFFINGHAM*     DRIZZLE   39  36  91 E7        30.04R WCI  34
MARION         RAIN      41  39  93 SE3       30.03R VSB 1
CENTRALIA*     DRIZZLE   39  38  97 SE7       30.01S WCI  34
SALEM*         RAIN      39  37  91 SE3       30.01F
METROPOLIS*    DRIZZLE   42  41  95 CALM      30.03F
$$

ILZ067-068-072-073-078-083-087-091-041700-
SOUTHEAST ILLINOIS

CITY           SKY/WX    TMP DP  RH WIND       PRES   REMARKS
LAWRENCEVILLE  LGT RAIN  40  35  83 SE7       30.05R
FLORA*         DRIZZLE   40  38  93 SE10      30.03F
FAIRFIELD*     DRIZZLE   39  38  96 E3        30.02F
HARRISBURG*    DRIZZLE   40  39  97 SE6       30.04R
ROBINSON*      CLOUDY    38  35  86 E9        30.05F WCI  32
CARMI*         RAIN      40  39  96 SE9       30.03S
$$

ABBREVIATIONS USED IN REMARKS
   TC - TEMPERATURE IN CELSIUS
  WCI - WIND CHILL INDEX
   HX - HEAT INDEX
  VSB - VISIBILITY
$$





USA.gov is the U.S. government's official web portal to all federal, state and local government web resources and services.